カタログに戻る

COSMOS 1275 DEB

運用中PO
NORAD 13811·DEBRIS·🇷🇺 Russia

打ち上げ Jun 4, 1981 から Plesetsk Cosmodrome

Loading…

次のパス (今後24時間)

TLE

最新Source: Space-Track

元期: Sep 14, 2026, 16:20 UTC

1 13811U 81053HF  26257.68065267  .00001502  00000-0  74711-3 0  9994
2 13811  82.9367 156.4740 0008137 209.2586 178.3545 14.16453568227174

AllMySatでCOSMOS 1275 DEBをリアルタイム追跡

Download on the App Store